English version Home page |
Updated on March 5, 2020 |
|
軌道要素Epoch 2018 Feb. 11.0 TT = JDT 2458160.5 T 2018 Feb. 21.71157 TT MPCW q 0.5806491 (2000.0) P Q z -0.0002339 Peri. 96.91928 +0.14107970 +0.19774320 Node 102.31575 -0.47694973 -0.84506420 e 1.0001358 Incl. 96.83253 +0.86753414 -0.49675358 From 1036 observations 2017 Sept. 28-2018 Mar. 25, mean residual 0".9. Nongravitational parameters A1 = +3.48, A2 = -0.2230.
|
星図
|
光度変化m1 = 12.0 + 5 logΔ + 9.0 log r [ ,-22] ( 〜2018年 1月30日) m1 = 14.0 + 5 logΔ + 13.0 log r(t + 20) [-22, ] (2018年 1月30日〜 ) ※ 灰色の曲線は、m1 = 12.0 + 5 logΔ + 9.0 log r の光度曲線です。
|
軌道要素はM.P.E.C. 2019-J142に掲載されたものです。
|